Date String (YYYY-MM-DD hh:mm:ss) UTC,Instrument flags,absolute air pressure of the measurement (hPa),sample flow rate (lpm),inlet stack bypass flow (lpm),air temperature of the measurement (°C),ambient temperature measured by the external sensor (°C),aerosol sample conditioner tube jacket temperature (°C),OPC LED temperature (°C),internal box temperature (°C),relative humidity of the measurement (%),span deviation,mass concentration of particles derived from Lorenz-Mie calculation of OPC scattering (μg/m³),mass concentration of particles derived from Lorenz-Mie calculation of OPC scattering (μg/m³),mass concentration of particles derived from Lorenz-Mie calculation of OPC scattering (μg/m³)
DateTimeUTC,F1_M11,P_M11,Q1_M11,Q2_M11,T1_M11,T2_M11,T3_M11,T4_M11,T5_M11,U1_M11,ZSPAN_M11,X0_M11,X2_M11,X1_M11
2023-07-20 01:00:00,SystemResetWarning,0836.6,5.00,000.00,029.0,025.0,000.0,037.2,030.2,33.4,0000.0,0008.06,0004.43,0003.92
2023-07-20 01:01:00,SystemResetWarning,0836.6,5.01,000.00,028.9,025.3,000.0,037.2,030.2,33.6,0000.0,0008.38,0004.52,0003.96
2023-07-20 01:02:00,SystemResetWarning,0836.6,4.99,000.00,028.9,025.8,000.0,037.3,030.2,33.3,0000.0,0008.48,0004.58,0004.00
2023-07-20 01:03:00,SystemResetWarning,0836.6,5.00,000.00,028.9,026.2,000.0,037.3,030.4,33.0,0000.0,0008.52,0004.61,0004.02
2023-07-20 01:04:00,SystemResetWarning,0836.6,5.00,000.00,029.0,026.6,000.0,037.3,030.5,33.0,0000.0,0008.08,0004.62,0004.03
2023-07-20 01:05:00,SystemResetWarning,0836.6,5.00,000.00,029.0,027.0,000.0,037.4,030.6,32.7,0000.0,0008.13,0004.65,0004.03
2023-07-20 01:06:00,SystemResetWarning,0836.6,5.00,000.00,029.0,027.3,000.0,037.4,030.7,32.8,0000.0,0008.25,0004.67,0004.04
2023-07-20 01:07:00,SystemResetWarning,0836.6,5.01,000.00,029.1,027.6,000.0,037.4,030.7,32.6,0000.0,0008.36,0004.68,0004.05
2023-07-20 01:08:00,SystemResetWarning,0836.6,5.00,000.00,029.1,027.8,000.0,037.4,030.8,32.0,0000.0,0008.95,0004.67,0004.05
2023-07-20 01:09:00,SystemResetWarning,0836.6,4.99,000.00,029.2,027.2,000.0,037.4,030.8,31.7,0000.0,0009.16,0004.66,0004.06
2023-07-20 01:10:00,SystemResetWarning,0836.6,5.00,000.00,029.1,025.6,000.0,037.3,030.5,31.9,0000.0,0009.19,0004.68,0004.08
2023-07-20 01:11:00,SystemResetWarning,0836.5,5.01,000.00,029.0,024.9,000.0,037.2,030.3,31.7,0000.0,0009.12,0004.65,0004.08
2023-07-20 01:12:00,SystemResetWarning,0836.5,5.01,000.00,028.9,025.0,000.0,037.2,030.1,32.5,0000.0,0008.74,0004.61,0004.07
2023-07-20 01:13:00,SystemResetWarning,0836.4,5.00,000.00,028.9,025.4,000.0,037.2,030.1,33.1,0000.0,0008.97,0004.59,0004.08
2023-07-20 01:14:00,SystemResetWarning,0836.5,5.00,000.00,028.9,025.9,000.0,037.3,030.3,32.4,0000.0,0009.06,0004.57,0004.07
2023-07-20 01:15:00,SystemResetWarning,0836.5,5.00,000.00,028.9,026.3,000.0,037.3,030.4,31.7,0000.0,0009.05,0004.56,0004.06
2023-07-20 01:16:00,SystemResetWarning,0836.4,5.00,000.00,028.9,026.7,000.0,037.3,030.5,31.6,0000.0,0009.02,0004.53,0004.06
2023-07-20 01:17:00,SystemResetWarning,0836.5,5.00,000.00,028.9,027.1,000.0,037.3,030.6,32.1,0000.0,0008.91,0004.50,0004.07
2023-07-20 01:18:00,SystemResetWarning,0836.5,5.00,000.00,029.0,027.4,000.0,037.3,030.7,32.2,0000.0,0009.16,0004.51,0004.08
2023-07-20 01:19:00,SystemResetWarning,0836.5,5.00,000.00,029.0,027.7,000.0,037.4,030.8,31.9,0000.0,0008.78,0004.52,0004.08
2023-07-20 01:20:00,SystemResetWarning,0836.5,5.00,000.00,029.1,027.9,000.0,037.4,030.8,31.9,0000.0,0008.54,0004.55,0004.08
2023-07-20 01:21:00,SystemResetWarning,0836.5,4.99,000.00,029.1,027.6,000.0,037.4,030.8,31.9,0000.0,0009.00,0004.58,0004.08
2023-07-20 01:22:00,SystemResetWarning,0836.4,4.98,000.00,029.1,026.0,000.0,037.3,030.5,32.5,0000.0,0009.10,0004.60,0004.09
2023-07-20 01:23:00,SystemResetWarning,0836.4,5.01,000.00,029.0,025.0,000.0,037.2,030.3,31.5,0000.0,0009.16,0004.62,0004.10
2023-07-20 01:24:00,SystemResetWarning,0836.5,5.01,000.00,028.9,024.9,000.0,037.2,030.2,30.9,0000.0,0009.10,0004.60,0004.10
2023-07-20 01:25:00,SystemResetWarning,0836.5,5.00,000.00,028.9,025.3,000.0,037.2,030.1,31.3,0000.0,0009.00,0004.61,0004.11
2023-07-20 01:26:00,SystemResetWarning,0836.5,5.00,000.00,028.8,025.7,000.0,037.2,030.2,32.4,0000.0,0009.02,0004.62,0004.11
2023-07-20 01:27:00,SystemResetWarning,0836.5,5.00,000.00,028.9,026.2,000.0,037.2,030.4,32.6,0000.0,0009.04,0004.61,0004.12
2023-07-20 01:28:00,SystemResetWarning,0836.5,5.00,000.00,028.9,026.6,000.0,037.3,030.5,32.1,0000.0,0009.33,0004.62,0004.12
2023-07-20 01:29:00,SystemResetWarning,0836.5,5.00,000.00,028.9,027.0,000.0,037.3,030.5,31.8,0000.0,0009.06,0004.60,0004.12
2023-07-20 01:30:00,SystemResetWarning,0836.6,5.00,000.00,029.0,027.3,000.0,037.3,030.6,31.2,0000.0,0009.26,0004.58,0004.11
2023-07-20 01:31:00,SystemResetWarning,0836.6,5.00,000.00,029.0,027.6,000.0,037.3,030.7,30.9,0000.0,0009.72,0004.59,0004.11
2023-07-20 01:32:00,SystemResetWarning,0836.6,5.00,000.00,029.1,027.8,000.0,037.4,030.8,30.9,0000.0,0009.64,0004.56,0004.11
2023-07-20 01:33:00,SystemResetWarning,0836.6,4.98,000.00,029.1,027.2,000.0,037.3,030.8,30.4,0000.0,0010.77,0004.56,0004.11
2023-07-20 01:34:00,SystemResetWarning,0836.5,5.00,000.00,029.1,025.5,000.0,037.2,030.5,30.4,0000.0,0011.04,0004.57,0004.12
2023-07-20 01:35:00,SystemResetWarning,0836.5,5.00,000.00,029.0,024.8,000.0,037.1,030.3,30.2,0000.0,0010.91,0004.58,0004.13
2023-07-20 01:36:00,SystemResetWarning,0836.5,5.02,000.00,028.9,024.9,000.0,037.1,030.2,30.5,0000.0,0010.67,0004.55,0004.13
2023-07-20 01:37:00,SystemResetWarning,0836.5,4.99,000.00,028.8,025.3,000.0,037.2,030.2,30.5,0000.0,0010.74,0004.53,0004.13
2023-07-20 01:38:00,SystemResetWarning,0836.5,5.00,000.00,028.8,025.8,000.0,037.2,030.3,30.5,0000.0,0011.36,0004.53,0004.13
2023-07-20 01:39:00,SystemResetWarning,0836.5,5.00,000.00,028.8,026.2,000.0,037.2,030.4,30.3,0000.0,0011.96,0004.56,0004.14
2023-07-20 01:40:00,SystemResetWarning,0836.5,5.01,000.00,028.8,026.6,000.0,037.2,030.4,30.5,0000.0,0012.10,0004.58,0004.15
2023-07-20 01:41:00,SystemResetWarning,0836.6,5.00,000.00,028.9,027.0,000.0,037.3,030.5,30.7,0000.0,0011.95,0004.62,0004.16
2023-07-20 01:42:00,SystemResetWarning,0836.6,5.00,000.00,028.9,027.3,000.0,037.3,030.6,31.1,0000.0,0011.47,0004.60,0004.16
2023-07-20 01:43:00,SystemResetWarning,0836.6,5.00,000.00,029.0,027.6,000.0,037.3,030.7,31.0,0000.0,0010.83,0004.57,0004.16
2023-07-20 01:44:00,SystemResetWarning,0836.6,5.01,000.00,029.0,027.8,000.0,037.3,030.8,31.4,0000.0,0009.59,0004.55,0004.15
2023-07-20 01:45:00,SystemResetWarning,0836.6,4.99,000.00,029.1,027.9,000.0,037.4,030.8,31.4,0000.0,0009.22,0004.53,0004.14
2023-07-20 01:46:00,SystemResetWarning,0836.6,4.98,000.00,029.1,026.8,000.0,037.3,030.8,31.2,0000.0,0009.31,0004.54,0004.13
2023-07-20 01:47:00,SystemResetWarning,0836.6,5.01,000.00,029.0,025.7,000.0,037.2,030.5,31.2,0000.0,0009.52,0004.55,0004.13
2023-07-20 01:48:00,SystemResetWarning,0836.5,5.01,000.00,029.0,025.5,000.0,037.2,030.3,31.0,0000.0,0009.46,0004.57,0004.13
2023-07-20 01:49:00,SystemResetWarning,0836.6,5.00,000.00,028.9,025.8,000.0,037.2,030.3,31.5,0000.0,0009.35,0004.57,0004.12
2023-07-20 01:50:00,SystemResetWarning,0836.6,5.00,000.00,028.9,026.2,000.0,037.3,030.4,32.0,0000.0,0008.63,0004.55,0004.11
2023-07-20 01:51:00,SystemResetWarning,0836.6,5.00,000.00,028.9,026.6,000.0,037.3,030.5,32.1,0000.0,0008.54,0004.54,0004.10
2023-07-20 01:52:00,SystemResetWarning,0836.6,5.00,000.00,029.0,027.0,000.0,037.3,030.6,32.0,0000.0,0008.74,0004.52,0004.09
2023-07-20 01:53:00,SystemResetWarning,0836.7,5.00,000.00,029.0,027.3,000.0,037.3,030.7,31.5,0000.0,0009.41,0004.54,0004.08
2023-07-20 01:54:00,SystemResetWarning,0836.7,5.00,000.00,029.0,027.6,000.0,037.4,030.8,31.1,0000.0,0009.73,0004.55,0004.08
2023-07-20 01:55:00,SystemResetWarning,0836.7,5.01,000.00,029.1,027.8,000.0,037.4,030.8,30.3,0000.0,0010.95,0004.60,0004.09
2023-07-20 01:56:00,SystemResetWarning,0836.7,5.00,000.00,029.1,027.7,000.0,037.4,030.9,30.1,0000.0,0011.34,0004.60,0004.10
2023-07-20 01:57:00,SystemResetWarning,0836.7,4.99,000.00,029.1,026.4,000.0,037.3,030.6,30.4,0000.0,0011.80,0004.58,0004.10
2023-07-20 01:58:00,SystemResetWarning,0836.6,5.01,000.00,029.0,025.6,000.0,037.2,030.5,29.9,0000.0,0011.83,0004.57,0004.10
2023-07-20 01:59:00,SystemResetWarning,0836.6,5.01,000.00,029.0,025.7,000.0,037.2,030.3,29.8,0000.0,0012.43,0004.56,0004.10
